STARLINK-30246 (57615 NORAD) Tracking and Keplerian Element Data

This shows tracking and keplerian element data for the satellite.

Feedback or suggestion? Click here.




ElementValue
Catalog57615
NameSTARLINK-30246
Epoch Orbit376
Epoch Day239.16667824
Epoch Year2023
RAAN77.7294
Inclination43.0009
Eccentricity0.0002678
Argument of Perigee180.2952
Mean Anonmoly79.0875
Mean Motion15.74533417
Decay Rate-0.00825606
L11 57615U 23119P 23239.16667824 -.00825606 00000+0 -60497-2 0 9995
L22 57615 43.0009 77.7294 0002678 180.2952 79.0875 15.74533417 3760



Live tracking and technical data element details for STARLINK-30246 (NORAD 57615). STARLINK-30246 can be tracked NOW for your location showing map with azimuth and elevation plus other details from your city location.







IsCatalogInMostPopularTable: catalog: 57615, numindb: 6
Update: records affected: 1



GetName: 57615 STARLINK-30246

Hit Count: updated at: Tue, 26 Sep 2023 12:16:14 GMT